Satellite: OO-38
Catalog number: 26063
Epoch time:      08153.75194334
Element set:    0226
Inclination:      100.1918 deg
RA of node:       225.5674 deg
Eccentricity:    0.0036487
Arg of perigee:   252.6129 deg
Mean anomaly:     107.1055 deg
Mean motion:   14.35836472 rev/day
Decay rate:       -2.9e-07 rev/day^2
Epoch rev:           43735
Checksum:              304

Satellite: MAST
Catalog number: 31126
Epoch time:      08153.75153427
Element set:    0343
Inclination:      098.0391 deg
RA of node:       218.8006 deg
Eccentricity:    0.0095514
Arg of perigee:   020.3980 deg
Mean anomaly:     340.0999 deg
Mean motion:   14.53425559 rev/day
Decay rate:      .00000000 rev/day^2
Epoch rev:           05977
Checksum:              282

Satellite: PO-34
Catalog number: 25520
Epoch time:      08153.73840574
Element set:    0016
Inclination:      028.4597 deg
RA of node:       282.2075 deg
Eccentricity:    0.0005553
Arg of perigee:   120.1553 deg
Mean anomaly:     239.9591 deg
Mean motion:   15.17196972 rev/day
Decay rate:       4.29e-06 rev/day^2
Epoch rev:           53081
Checksum:              307

Satellite: UWE-1
Catalog number: 28892
Epoch time:      08153.72854280
Element set:    0063
Inclination:      098.0994 deg
RA of node:       047.7388 deg
Eccentricity:    0.0018548
Arg of perigee:   097.0196 deg
Mean anomaly:     263.3146 deg
Mean motion:   14.59632705 rev/day
Decay rate:       1.87e-06 rev/day^2
Epoch rev:           13834
Checksum:              338

Satellite: SEEDS
Catalog number: 32791
Epoch time:      08153.72096866
Element set:    0061
Inclination:      097.9937 deg
RA of node:       213.6650 deg
Eccentricity:    0.0015925
Arg of perigee:   181.5396 deg
Mean anomaly:     178.5768 deg
Mean motion:   14.81272889 rev/day
Decay rate:        3.4e-07 rev/day^2
Epoch rev:           00508
Checksum:              334

Satellite: DO-64
Catalog number: 32789
Epoch time:      08153.71835049
Element set:    0082
Inclination:      097.9919 deg
RA of node:       213.6674 deg
Eccentricity:    0.0015661
Arg of perigee:   182.7300 deg
Mean anomaly:     177.3826 deg
Mean motion:   14.81393639 rev/day
Decay rate:       2.82e-06 rev/day^2
Epoch rev:           00511
Checksum:              318

Satellite: UARS
Catalog number: 21701
Epoch time:      08153.69823114
Element set:    0399
Inclination:      056.9723 deg
RA of node:       228.9402 deg
Eccentricity:    0.0087462
Arg of perigee:   148.1847 deg
Mean anomaly:     212.4537 deg
Mean motion:   15.51971266 rev/day
Decay rate:      5.094e-05 rev/day^2
Epoch rev:           92009
Checksum:              315

Satellite: NCUBE2
Catalog number: 28897
Epoch time:      08153.66322388
Element set:     565
Inclination:      098.0984 deg
RA of node:       047.9582 deg
Eccentricity:    0.0018298
Arg of perigee:   097.9207 deg
Mean anomaly:     262.4055 deg
Mean motion:   14.59843171 rev/day
Decay rate:       1.33e-06 rev/day^2
Epoch rev:           13050
Checksum:              334

Satellite: CO-58
Catalog number: 28895
Epoch time:      08153.28559067
Element set:    0036
Inclination:      098.1005 deg
RA of node:       047.6581 deg
Eccentricity:    0.0019055
Arg of perigee:   099.0996 deg
Mean anomaly:     261.2359 deg
Mean motion:   14.59672533 rev/day
Decay rate:       1.27e-06 rev/day^2
Epoch rev:           13816
Checksum:              341

Satellite: FCAL
Catalog number: 29667
Epoch time:      08146.34060426
Element set:     979
Inclination:      051.6107 deg
RA of node:       065.3702 deg
Eccentricity:    0.0009039
Arg of perigee:   260.8350 deg
Mean anomaly:     099.5042 deg
Mean motion:   16.53464210 rev/day
Decay rate:  1.1864717e-01 rev/day^2
Epoch rev:            8291
Checksum:              307

/EX






More information about the Keps mailing list